1510621201.14,14898,7.19,72786.3,-11.75,-32.75,-32.97,0,*62
1510621202.37,14899,7.19,72786.3,-11.75,-32.57,-32.97,0,*63
1510621203.64,14900,7.19,72790.0,-11.75,-32.29,-32.63,0,*60
1510621204.9,14901,7.19,72780.0,-11.75,-32.07,-32.29,0,*63
1510621206.17,14902,7.19,72780.5,-11.75,-32.07,-32.45,0,*6A
1510621207.42,14903,7.19,72780.3,-11.75,-32.57,-32.79,0,*61
1510621208.63,14904,7.19,72782.0,-11.79,-32.35,-32.51,0,*64
1510621209.87,14905,7.19,72776.8,-11.73,-32.23,-32.39,0,*66
1510621211.13,14906,7.19,72776.8,-11.73,-32.29,-32.39,0,*6F
1510621212.4,14907,7.19,72786.0,-11.73,-32.07,-32.39,0,*62
1510621213.66,14908,7.19,72784.5,-11.73,-32.13,-32.45,0,*63
1510621214.93,14909,7.19,72788.3,-11.73,-31.95,-32.23,0,*6F
1510621216.23,14910,7.19,72778.0,-11.73,-31.73,-31.95,0,*61
1510621217.53,14911,7.19,72774.0,-11.71,-31.85,-32.19,0,*6C
1510621218.76,14912,7.19,72774.5,-11.71,-32.35,-32.57,0,*6D
1510621220.0,14913,7.19,72772.5,-11.71,-32.23,-32.57,0,*6B
1510621221.28,14914,7.19,72772.0,-11.71,-32.51,-32.75,0,*69
1510621222.55,14915,7.19,72774.5,-11.71,-32.51,-32.75,0,*68
1510621223.83,14916,7.19,72772.3,-11.71,-32.51,-32.85,0,*64
1510621225.1,14917,7.19,72766.5,-11.71,-32.57,-32.97,0,*60
1510621226.35,14918,7.19,72770.3,-11.69,-32.69,-32.85,0,*68
1510621227.63,14919,7.19,72780.5,-11.71,-32.51,-32.75,0,*64
1510621228.85,14920,7.19,72784.3,-11.69,-32.23,-32.51,0,*64
1510621230.09,14921,7.19,72786.5,-11.71,-32.23,-32.69,0,*67
1510621231.34,14922,7.19,72782.8,-11.69,-32.39,-32.75,0,*6B
1510621232.59,14923,7.19,72782.3,-11.69,-32.39,-32.85,0,*65
1510621233.83,14924,7.19,72784.0,-11.69,-32.57,-32.97,0,*69
1510621235.07,14925,7.19,72786.5,-11.69,-32.57,-32.97,0,*68
1510621236.34,14926,7.19,72786.0,-11.71,-32.69,-32.97,0,*6F
1510621237.58,14927,7.19,72790.5,-11.69,-32.57,-32.97,0,*6A
1510621238.83,14928,7.25,72790.8,-11.71,-32.57,-32.91,0,*6A
1510621240.1,14929,7.19,72788.3,-11.71,-32.57,-32.97,0,*6D
1510621241.37,14930,7.19,72784.8,-11.71,-32.51,-32.85,0,*60
1510621242.65,14931,7.19,72786.8,-11.71,-32.39,-32.85,0,*6F
1510621243.89,14932,7.19,72788.8,-11.69,-32.57,-32.97,0,*6E
1510621245.13,14933,7.19,72790.3,-11.69,-32.69,-32.97,0,*62
1510621246.38,14934,7.19,72794.8,-11.71,-32.57,-32.91,0,*67
1510621247.63,14935,7.19,72788.0,-11.69,-32.57,-32.85,0,*6A
1510621248.87,14936,7.19,72788.8,-11.69,-32.35,-32.75,0,*62
1510621250.15,14937,7.19,72790.8,-11.71,-32.69,-32.97,0,*6F
1510621251.4,14938,7.19,72786.8,-11.71,-32.69,-32.91,0,*66
1510621252.65,14939,7.19,72788.8,-11.69,-32.51,-32.85,0,*60
1510621253.92,14940,7.19,72788.3,-11.71,-32.51,-32.75,0,*68
1510621255.17,14941,7.19,72784.3,-11.69,-32.39,-32.75,0,*6E
1510621256.44,14942,7.19,72786.8,-11.71,-32.39,-32.85,0,*6B
1510621257.66,14943,7.19,72778.3,-11.69,-32.51,-32.91,0,*68
1510621258.93,14944,7.19,72772.8,-11.71,-32.57,-32.97,0,*66
1510621260.17,14945,7.19,72770.0,-11.69,-32.57,-32.97,0,*6E
1510621261.44,14946,7.19,72774.8,-11.69,-32.85,-33.09,0,*64
1510621262.71,14947,7.19,72782.8,-11.69,-32.75,-33.09,0,*6A
1510621263.98,14948,7.19,72782.5,-11.69,-32.85,-33.09,0,*6A
1510621265.28,14949,7.19,72784.0,-11.71,-32.85,-33.09,0,*62
1510621266.55,14950,7.19,72780.8,-11.69,-32.75,-33.09,0,*6C
1510621267.79,14951,7.19,72784.0,-11.69,-32.85,-33.15,0,*6F
1510621269.04,14952,7.19,72784.5,-11.69,-32.69,-32.97,0,*65
1510621270.31,14953,7.19,72786.0,-11.71,-32.85,-33.15,0,*64
1510621271.56,14954,7.19,72788.0,-11.69,-32.75,-33.15,0,*65
1510621272.81,14955,7.19,72788.8,-11.71,-32.69,-33.15,0,*60
1510621274.08,14956,7.19,72790.5,-11.71,-32.75,-33.15,0,*6E
1510621275.38,14957,7.19,72790.3,-11.71,-32.85,-33.09,0,*6D
1510621276.65,14958,7.19,72790.0,-11.71,-32.85,-33.15,0,*6F
1510621277.95,14959,7.19,72788.8,-11.71,-32.75,-32.97,0,*6A
1510621279.25,14960,7.25,72794.0,-11.71,-32.75,-33.09,0,*66
1510621280.53,14961,7.19,72788.5,-11.71,-32.69,-33.09,0,*6A
1510621281.8,14962,7.19,72790.0,-11.71,-32.69,-33.09,0,*69
1510621283.07,14963,7.19,72788.8,-11.73,-32.79,-33.21,0,*61
1510621284.34,14964,7.19,72794.0,-11.73,-32.75,-33.15,0,*6D
1510621285.6,14965,7.19,72792.8,-11.73,-32.79,-33.15,0,*60
1510621286.84,14966,7.19,72794.8,-11.73,-32.57,-33.03,0,*68
1510621288.11,14967,7.19,72798.3,-11.73,-32.75,-33.15,0,*6E
1510621289.37,14968,7.19,72796.3,-11.73,-32.75,-33.21,0,*66
1510621290.64,14969,7.19,72796.8,-11.73,-32.63,-33.03,0,*60
1510621291.87,14970,7.19,72796.8,-11.75,-32.23,-32.63,0,*6D
1510621293.14,14971,7.19,72792.3,-11.73,-32.39,-32.75,0,*66
1510621294.42,14972,7.19,72790.3,-11.71,-32.39,-32.85,0,*68
1510621295.69,14973,7.19,72790.0,-11.71,-32.19,-32.69,0,*69
1510621296.91,14974,7.19,72786.5,-11.69,-32.23,-32.69,0,*6E
1510621298.18,14975,7.19,72790.3,-11.71,-32.19,-32.57,0,*62
1510621299.43,14976,7.19,72790.0,-11.71,-32.39,-32.91,0,*69
1510621300.67,14977,7.19,72792.0,-11.71,-32.51,-32.91,0,*66
1510621301.92,14978,7.19,72790.0,-11.71,-32.57,-33.15,0,*62
1510621303.17,14979,7.19,72790.0,-11.69,-32.69,-33.09,0,*6A
1510621304.42,14980,7.19,72794.8,-11.71,-32.57,-32.91,0,*68
1510621305.67,14981,7.25,72792.3,-11.71,-32.69,-33.15,0,*69
1510621306.97,14982,7.19,72796.0,-11.71,-32.75,-33.09,0,*6A
1510621308.22,14983,7.19,72790.0,-11.71,-32.51,-32.91,0,*6D
1510621309.44,14984,7.19,72794.3,-11.69,-32.51,-32.91,0,*63
1510621310.71,14985,7.19,72788.3,-11.71,-32.51,-32.97,0,*6D
1510621311.99,14986,7.19,72794.5,-11.71,-32.69,-33.09,0,*63
1510621313.23,14987,7.19,72796.3,-11.69,-32.69,-33.09,0,*6B
1510621314.51,14988,7.19,72796.0,-11.69,-32.75,-33.27,0,*65
1510621315.73,14989,7.19,72796.8,-11.69,-32.51,-32.91,0,*6E
1510621317.0,14990,7.19,72790.3,-11.71,-32.57,-32.97,0,*6F
1510621318.25,14991,7.19,72792.5,-11.69,-32.69,-33.09,0,*6C
1510621319.52,14992,7.19,72790.0,-11.71,-32.69,-32.97,0,*60
1510621320.79,14993,7.19,72784.3,-11.71,-32.57,-32.97,0,*6C
1510621322.07,14994,7.19,72786.5,-11.71,-32.69,-33.09,0,*60
1510621323.34,14995,7.19,72788.5,-11.71,-32.51,-33.09,0,*6A
1510621324.61,14996,7.19,72790.8,-11.71,-32.51,-32.97,0,*6F
1510621325.88,14997,7.19,72790.5,-11.71,-32.57,-32.97,0,*68
1510621327.13,14998,7.19,72790.5,-11.71,-32.57,-32.91,0,*61
1510621328.38,14999,7.19,72794.5,-11.71,-32.57,-32.91,0,*60
1510621329.62,15000,7.19,72792.8,-11.71,-32.51,-32.91,0,*6E
1510621330.89,15001,7.19,72792.8,-11.71,-32.51,-32.97,0,*69
1510621332.16,15002,7.19,72798.5,-11.71,-32.57,-32.97,0,*6C
1510621333.43,15003,7.19,72798.3,-11.73,-32.75,-33.15,0,*64
1510621334.7,15004,7.19,72800.0,-11.71,-32.75,-33.15,0,*61
1510621336.01,15005,7.19,72794.3,-11.71,-32.85,-33.27,0,*6E
1510621337.3,15006,7.19,72792.0,-11.71,-32.75,-32.97,0,*68
1510621338.58,15007,7.19,72798.5,-11.71,-32.57,-32.85,0,*6A
1510621339.85,15008,7.19,72796.8,-11.71,-32.51,-32.85,0,*63
1510621341.13,15009,7.19,72792.5,-11.71,-32.39,-32.75,0,*63
1510621342.38,15010,7.19,72794.5,-11.71,-32.69,-32.91,0,*64
1510621343.66,15011,7.19,72792.8,-11.71,-32.51,-32.75,0,*64
1510621344.94,15012,7.19,72794.0,-11.71,-32.19,-32.51,0,*6D
1510621346.22,15013,7.19,72782.0,-11.71,-32.07,-32.39,0,*6D
1510621347.47,15014,7.19,72784.5,-11.69,-32.39,-32.75,0,*66
1510621348.69,15015,7.19,72786.5,-11.69,-32.57,-32.91,0,*65
1510621349.96,15016,7.19,72782.5,-11.71,-32.57,-32.97,0,*69
1510621351.23,15017,7.19,72784.3,-11.71,-32.57,-33.09,0,*6E
1510621352.48,15018,7.19,72786.0,-11.71,-32.57,-32.91,0,*61
1510621353.75,15019,7.19,72788.0,-11.71,-32.57,-32.97,0,*66
1510621355.0,15020,7.19,72786.3,-11.71,-32.51,-32.91,0,*6C
1510621356.27,15021,7.19,72790.8,-11.71,-32.69,-32.97,0,*60
1510621357.55,15022,7.19,72788.8,-11.71,-32.69,-32.97,0,*63
1510621358.82,15023,7.19,72786.3,-11.71,-32.69,-32.97,0,*62
1510621360.07,15024,7.19,72790.0,-11.71,-32.69,-32.91,0,*63
1510621361.35,15025,7.19,72788.5,-11.71,-32.51,-32.85,0,*6C
1510621362.59,15026,7.19,72788.0,-11.69,-32.51,-32.85,0,*66
1510621363.84,15027,7.19,72794.3,-11.71,-32.51,-32.91,0,*6B
1510621365.06,15028,7.19,72794.3,-11.69,-32.51,-32.91,0,*6D
1510621366.31,15029,7.19,72792.5,-11.71,-32.51,-32.91,0,*65
1510621367.55,15030,7.19,72788.5,-11.69,-32.57,-32.97,0,*64
1510621368.82,15031,7.19,72788.5,-11.71,-32.69,-32.97,0,*61
1510621370.08,15032,7.19,72790.5,-11.71,-32.69,-32.91,0,*64
1510621371.33,15033,7.19,72792.0,-11.71,-32.69,-32.91,0,*65
1510621372.6,15034,7.19,72790.8,-11.71,-32.57,-32.97,0,*69
1510621373.87,15035,7.19,72790.0,-11.71,-32.69,-32.97,0,*65
1510621375.17,15036,7.19,72792.5,-11.71,-32.75,-33.09,0,*6D
1510621376.45,15037,7.19,72792.8,-11.71,-32.69,-32.97,0,*67
1510621377.73,15038,7.19,72794.3,-11.71,-32.69,-33.09,0,*6E
1510621379.02,15039,7.19,72790.0,-11.73,-32.75,-32.97,0,*66
1510621380.28,15040,7.19,72794.3,-11.73,-32.75,-33.03,0,*64
1510621381.57,15041,7.19,72794.5,-11.73,-32.75,-32.97,0,*69
1510621382.84,15042,7.19,72796.8,-11.73,-32.75,-33.03,0,*66
1510621384.11,15043,7.19,72792.8,-11.73,-32.79,-33.03,0,*6B
1510621385.37,15044,7.19,72794.5,-11.73,-32.79,-33.15,0,*6B
1510621386.64,15045,7.19,72794.5,-11.73,-32.75,-33.15,0,*66
1510621387.88,15046,7.19,72798.5,-11.75,-32.75,-33.03,0,*64
1510621389.17,15047,7.19,72792.8,-11.73,-32.63,-32.97,0,*68
1510621390.41,15048,7.19,72794.5,-11.73,-32.57,-32.91,0,*66
1510621391.69,15049,7.19,72796.5,-11.73,-32.63,-32.97,0,*66
1510621392.96,15050,7.19,72796.8,-11.73,-32.75,-33.03,0,*65
1510621394.25,15051,7.25,72802.3,-11.73,-32.75,-32.97,0,*68
1510621395.51,15052,7.19,72800.0,-11.73,-32.57,-32.79,0,*6B
1510621396.76,15053,7.19,72798.8,-11.73,-32.57,-32.91,0,*6C
1510621398.02,15054,7.19,72798.8,-11.73,-32.63,-33.03,0,*66
1510621399.3,15055,7.19,72796.0,-11.73,-32.63,-32.97,0,*6B
1510621400.55,15056,7.19,72802.0,-11.75,-32.75,-33.03,0,*65
1510621401.83,15057,7.19,72798.3,-11.73,-32.63,-32.97,0,*69
1510621403.1,15058,7.19,72796.3,-11.73,-32.75,-33.03,0,*6D
1510621404.37,15059,7.19,72796.8,-11.73,-32.75,-33.15,0,*6B
1510621405.63,15060,7.19,72798.5,-11.73,-32.79,-33.15,0,*6D
1510621406.92,15061,7.19,72798.8,-11.73,-32.63,-32.97,0,*6C
1510621408.18,15062,7.19,72800.0,-11.73,-32.63,-33.03,0,*63
1510621409.42,15063,7.19,72802.8,-11.75,-32.57,-32.97,0,*6F
1510621410.64,15064,7.19,72798.0,-11.75,-32.57,-32.91,0,*6E
1510621411.9,15065,7.19,72802.8,-11.73,-32.63,-33.03,0,*64
1510621413.16,15066,7.19,72802.0,-11.75,-32.63,-32.97,0,*6D
1510621414.41,15067,7.19,72800.5,-11.75,-32.57,-32.79,0,*6B
1510621415.66,15068,7.19,72792.0,-11.75,-32.29,-32.63,0,*66
1510621416.91,15069,7.19,72788.5,-11.75,-32.39,-32.75,0,*61
1510621418.17,15070,7.19,72792.0,-11.73,-32.45,-32.91,0,*6E
1510621419.42,15071,7.19,72794.3,-11.75,-32.57,-32.79,0,*6C
1510621420.68,15072,7.19,72802.5,-11.75,-32.63,-32.97,0,*68
1510621421.96,15073,7.19,72796.5,-11.73,-32.29,-32.63,0,*6A
1510621423.2,15074,7.19,72786.0,-11.73,-32.13,-32.57,0,*63
1510621424.46,15075,7.19,72780.5,-11.75,-32.29,-32.75,0,*6D
1510621425.72,15076,7.19,72782.3,-11.75,-32.63,-32.97,0,*6C
1510621426.99,15077,7.19,72782.5,-11.73,-32.63,-33.03,0,*67
1510621428.25,15078,7.19,72782.0,-11.75,-32.63,-32.97,0,*62
1510621429.49,15079,7.19,72782.3,-11.75,-32.57,-32.97,0,*64
1510621430.73,15080,7.19,72784.8,-11.75,-32.57,-32.97,0,*62
1510621431.94,15081,7.19,72782.3,-11.75,-32.57,-32.91,0,*65
1510621433.23,15082,7.19,72782.5,-11.73,-32.45,-32.79,0,*65
1510621434.52,15083,7.19,72788.0,-11.73,-32.45,-32.79,0,*64
1510621435.77,15084,7.19,72792.5,-11.75,-32.39,-32.79,0,*6E
1510621437.01,15085,7.19,72790.3,-11.73,-32.57,-32.91,0,*67
1510621438.25,15086,7.19,72788.0,-11.75,-32.63,-33.03,0,*6F
1510621439.51,15087,7.19,72794.5,-11.73,-32.57,-32.97,0,*63
1510621440.77,15088,7.19,72792.8,-11.73,-32.57,-32.97,0,*6C
1510621441.99,15089,7.19,72790.8,-11.75,-32.39,-32.91,0,*65
1510621443.23,15090,7.19,72792.8,-11.75,-32.63,-32.91,0,*62
1510621444.47,15091,7.19,72792.5,-11.75,-32.57,-32.97,0,*62
1510621445.71,15092,7.19,72796.5,-11.75,-32.57,-32.97,0,*61
1510621446.95,15093,7.19,72794.8,-11.75,-32.39,-32.79,0,*68
1510621448.19,15094,7.19,72794.3,-11.75,-32.45,-32.91,0,*62
1510621449.43,15095,7.19,72792.5,-11.75,-32.39,-32.79,0,*6E
1510621450.67,15096,7.19,72792.8,-11.75,-32.39,-32.79,0,*6D
1510621451.91,15097,7.19,72794.3,-11.75,-32.57,-32.97,0,*64
1510621453.15,15098,7.19,72792.5,-11.75,-32.45,-32.91,0,*6E
1510621454.42,15099,7.19,72794.5,-11.73,-32.57,-32.97,0,*6C
1510621455.68,15100,7.19,72794.0,-11.75,-32.63,-32.97,0,*6C
1510621456.92,15101,7.19,72792.0,-11.75,-32.57,-32.97,0,*6A
1510621458.15,15102,7.19,72788.8,-11.75,-32.45,-33.03,0,*66
1510621459.39,15103,7.19,72792.3,-11.75,-32.63,-33.03,0,*63
1510621460.66,15104,7.19,72790.5,-11.75,-32.29,-32.79,0,*66
1510621461.92,15105,7.19,72788.0,-11.73,-32.23,-32.79,0,*6B
1510621463.18,15106,7.19,72790.5,-11.75,-32.29,-32.79,0,*64
1510621464.42,15107,7.19,72794.0,-11.75,-32.45,-32.91,0,*69
1510621465.68,15108,7.19,72792.0,-11.73,-32.45,-33.03,0,*6A
1510621466.9,15109,7.19,72790.5,-11.75,-32.39,-32.91,0,*6C
1510621468.14,15110,7.19,72788.3,-11.75,-32.07,-32.57,0,*63
1510621469.41,15111,7.19,72792.0,-11.73,-32.23,-32.75,0,*62
1510621470.65,15112,7.19,72792.8,-11.75,-32.45,-33.03,0,*67
1510621471.88,15113,7.19,72796.5,-11.75,-32.29,-32.91,0,*66
1510621473.14,15114,7.19,72794.0,-11.73,-32.57,-32.97,0,*68
1510621474.38,15115,7.19,72794.8,-11.75,-32.39,-32.97,0,*67
1510621475.67,15116,7.19,72794.0,-11.73,-32.29,-32.79,0,*63
1510621476.93,15117,7.19,72792.8,-11.73,-32.39,-32.97,0,*63
1510621478.17,15118,7.19,72796.3,-11.75,-32.63,-33.03,0,*69
1510621479.43,15119,7.19,72796.3,-11.73,-32.63,-33.15,0,*69
1510621480.67,15120,7.19,72794.8,-11.75,-32.63,-33.15,0,*65
1510621481.88,15121,7.19,72796.3,-11.75,-32.57,-33.15,0,*63
1510621483.13,15122,7.19,72796.5,-11.75,-32.39,-32.75,0,*6F
1510621484.39,15123,7.19,72798.8,-11.75,-32.45,-32.97,0,*69
1510621485.63,15124,7.19,72796.3,-11.75,-32.45,-33.03,0,*62
1510621486.84,15125,7.19,72798.8,-11.75,-32.57,-33.03,0,*60
1510621488.08,15126,7.19,72798.8,-11.75,-32.57,-32.97,0,*6F
1510621489.35,15127,7.19,72798.0,-11.73,-32.63,-33.21,0,*63
1510621490.56,15128,7.19,72794.8,-11.75,-32.57,-33.03,0,*6D
1510621491.78,15129,7.19,72798.3,-11.79,-32.51,-33.03,0,*66
1510621493.02,15130,7.19,72796.8,-11.79,-32.45,-33.03,0,*6B
1510621494.24,15131,7.19,72798.3,-11.75,-32.39,-32.91,0,*67
1510621495.48,15132,7.19,72798.3,-11.75,-32.45,-33.03,0,*65
1510621496.69,15133,7.19,72796.8,-11.75,-32.39,-32.91,0,*65
1510621497.95,15134,7.19,72792.0,-11.81,-32.35,-32.97,0,*63
1510621499.19,15135,7.19,72794.3,-11.75,-32.29,-32.91,0,*62
1510621500.41,15136,7.19,72794.0,-11.75,-32.57,-33.15,0,*65
1510621501.64,15137,7.19,72792.8,-11.75,-32.39,-32.97,0,*67
1510621502.86,15138,7.19,72796.0,-11.75,-32.39,-33.03,0,*64
1510621504.1,15139,7.19,72792.5,-11.75,-32.45,-33.03,0,*6E
1510621505.31,15140,7.19,72802.3,-11.75,-32.57,-33.15,0,*64
1510621506.57,15141,7.19,72796.8,-11.75,-32.45,-32.97,0,*6D
1510621507.81,15142,7.19,72798.5,-11.75,-32.23,-32.97,0,*6E
1510621509.05,15143,7.19,72796.0,-11.75,-32.45,-32.91,0,*69
1510621510.31,15144,7.19,72796.8,-11.75,-32.45,-32.97,0,*68
1510621511.57,15145,7.19,72798.3,-11.75,-32.29,-32.79,0,*63
1510621512.83,15146,7.19,72794.8,-11.75,-32.45,-32.97,0,*6A
1510621514.05,15147,7.19,72798.5,-11.75,-32.57,-33.03,0,*64
1510621515.26,15148,7.19,72794.3,-11.75,-32.57,-33.03,0,*6B
1510621516.49,15149,7.19,72794.3,-11.79,-32.69,-33.21,0,*6B
1510621517.73,15150,7.19,72796.5,-11.79,-32.63,-33.03,0,*69
1510621519.0,15151,7.19,72796.3,-11.75,-32.63,-33.31,0,*65
1510621520.26,15152,7.19,72800.0,-11.75,-32.63,-33.31,0,*66
1510621521.49,15153,7.19,72792.5,-11.79,-32.69,-33.21,0,*60
1510621522.73,15154,7.19,72796.8,-11.79,-32.63,-33.21,0,*6D
1510621523.97,15155,7.19,72792.5,-11.79,-32.63,-33.03,0,*6C
1510621525.22,15156,7.19,72802.0,-11.79,-32.63,-33.03,0,*6F
1510621526.49,15157,7.19,72800.3,-11.79,-32.19,-32.79,0,*6F
1510621527.76,15158,7.19,72792.5,-11.79,-32.63,-33.09,0,*6B
1510621528.97,15159,7.19,72786.8,-11.79,-32.51,-33.03,0,*61
1510621530.19,15160,7.19,72784.0,-11.79,-32.51,-33.03,0,*6B
1510621531.41,15161,7.19,72792.8,-11.79,-32.51,-33.03,0,*6A
1510621532.67,15162,7.19,72800.0,-11.75,-32.45,-32.97,0,*6C
1510621533.91,15163,7.19,72798.8,-11.79,-32.51,-32.97,0,*64
1510621535.16,15164,7.19,72794.3,-11.79,-32.63,-33.03,0,*6E
1510621536.37,15165,7.25,72798.3,-11.75,-32.57,-33.03,0,*64
1510621537.61,15166,7.19,72804.8,-11.75,-32.63,-33.15,0,*67
1510621538.83,15167,7.19,72802.8,-11.75,-32.39,-33.03,0,*6E
1510621540.04,15168,7.19,72796.5,-11.75,-32.57,-33.03,0,*69
1510621541.31,15169,7.19,72794.0,-11.75,-32.07,-32.63,0,*6A
1510621542.57,15170,7.19,72796.5,-11.79,-32.45,-32.97,0,*63
1510621543.82,15171,7.19,72800.8,-11.79,-32.13,-32.63,0,*6A
1510621545.08,15172,7.19,72806.8,-11.79,-32.29,-32.85,0,*68
1510621546.34,15173,7.19,72808.8,-11.73,-32.45,-33.03,0,*66
1510621547.56,15174,7.19,72808.8,-11.75,-32.23,-32.91,0,*6D
1510621548.8,15175,7.19,72804.3,-11.75,-32.23,-32.75,0,*66
1510621550.07,15176,7.19,72800.8,-11.75,-32.29,-32.75,0,*6F
1510621551.33,15177,7.19,72798.0,-11.75,-32.07,-32.63,0,*65
1510621552.58,15178,7.19,72792.0,-11.75,-31.95,-32.23,0,*66
1510621553.87,15179,7.19,72794.0,-11.73,-31.95,-32.75,0,*62
1510621555.11,15180,7.19,72796.5,-11.75,-32.23,-32.79,0,*60
1510621556.35,15181,7.19,72798.0,-11.75,-32.29,-32.91,0,*6D
1510621557.61,15182,7.19,72798.8,-11.75,-32.45,-32.97,0,*62
1510621558.87,15183,7.19,72794.8,-11.75,-32.45,-32.97,0,*63
1510621560.14,15184,7.19,72798.5,-11.79,-32.63,-33.09,0,*6A
1510621561.36,15185,7.19,72800.3,-11.75,-32.39,-32.91,0,*68
1510621562.57,15186,7.19,72798.3,-11.75,-32.57,-33.03,0,*69
1510621563.81,15187,7.19,72796.3,-11.75,-32.63,-33.03,0,*6F
1510621565.08,15188,7.19,72792.3,-11.73,-32.79,-33.15,0,*6A
1510621566.32,15189,7.19,72796.3,-11.75,-32.75,-33.15,0,*61
1510621567.56,15190,7.19,72806.0,-11.75,-32.63,-33.15,0,*6E
1510621568.8,15191,7.19,72802.8,-11.75,-32.63,-33.15,0,*6F
1510621570.04,15192,7.19,72800.0,-11.75,-32.63,-33.15,0,*6C
1510621571.28,15193,7.19,72798.8,-11.75,-32.63,-32.91,0,*60
1510621572.54,15194,7.19,72796.8,-11.75,-32.29,-32.79,0,*6F
1510621573.81,15195,7.19,72796.5,-11.79,-32.63,-33.09,0,*6A
1510621575.07,15196,7.19,72800.0,-11.75,-32.45,-32.97,0,*67
1510621576.33,15197,7.19,72798.0,-11.75,-32.45,-32.97,0,*66
1510621577.62,15198,7.19,72798.0,-11.73,-32.45,-32.97,0,*6F
1510621578.88,15199,7.19,72800.5,-11.75,-32.45,-32.97,0,*68
1510621580.14,15200,7.19,72800.3,-11.73,-32.63,-33.03,0,*65
1510621581.38,15201,7.19,72804.8,-11.75,-32.45,-33.03,0,*66
1510621582.62,15202,7.19,72806.0,-11.75,-32.63,-33.03,0,*61
1510621583.84,15203,7.19,72806.0,-11.75,-32.57,-33.03,0,*67
1510621585.1,15204,7.19,72796.5,-11.79,-32.45,-32.97,0,*63
1510621586.34,15205,7.19,72796.0,-11.75,-32.29,-32.91,0,*62
1510621587.6,15206,7.19,72802.3,-11.75,-32.45,-32.97,0,*6D
1510621588.82,15207,7.19,72800.8,-11.75,-32.39,-32.91,0,*61
1510621590.03,15208,7.19,72802.3,-11.75,-32.57,-33.03,0,*6C
1510621591.27,15209,7.19,72804.0,-11.75,-32.39,-32.79,0,*69
1510621592.51,15210,7.19,72802.3,-11.75,-32.45,-32.91,0,*6C
1510621593.75,15211,7.19,72804.5,-11.75,-32.57,-32.97,0,*68
1510621594.97,15212,7.25,72804.3,-11.75,-32.39,-32.91,0,*65
1510621596.24,15213,7.19,72806.8,-11.79,-32.63,-33.09,0,*67
1510621597.48,15214,7.19,72804.0,-11.75,-32.57,-32.97,0,*6D
1510621598.72,15215,7.19,72804.3,-11.75,-32.63,-33.03,0,*67
1510621599.96,15216,7.19,72804.8,-11.75,-32.63,-33.03,0,*64
1510621601.17,15217,7.19,72806.8,-11.75,-32.57,-33.03,0,*62
1510621602.39,15218,7.19,72802.0,-11.79,-32.51,-33.03,0,*67
1510621603.61,15219,7.19,72802.8,-11.75,-32.39,-32.91,0,*6E
1510621604.85,15220,7.19,72808.3,-11.75,-32.29,-32.91,0,*65
1510621606.06,15221,7.19,72806.0,-11.75,-32.39,-32.91,0,*65
1510621607.28,15222,7.19,72806.3,-11.75,-32.39,-32.91,0,*66
1510621608.52,15223,7.19,72802.0,-11.75,-32.29,-32.91,0,*66
1510621609.76,15224,7.19,72804.0,-11.75,-32.45,-33.03,0,*61
1510621611.02,15225,7.19,72802.5,-11.75,-32.45,-32.97,0,*6C
1510621612.26,15226,7.19,72802.5,-11.75,-32.45,-33.03,0,*63
1510621613.52,15227,7.19,72806.3,-11.75,-32.45,-32.97,0,*6E
1510621614.75,15228,7.19,72804.0,-11.75,-32.45,-33.03,0,*6D
1510621615.97,15229,7.19,72806.8,-11.75,-32.57,-33.03,0,*6F
1510621617.21,15230,7.19,72800.3,-11.75,-32.63,-33.03,0,*60
1510621618.45,15231,7.19,72806.3,-11.75,-32.63,-33.15,0,*66
1510621619.67,15232,7.19,72806.3,-11.75,-32.57,-33.03,0,*65
1510621620.91,15233,7.19,72804.5,-11.75,-32.63,-33.15,0,*64
1510621622.17,15234,7.19,72806.3,-11.79,-32.63,-33.09,0,*62
1510621623.4,15235,7.19,72804.5,-11.79,-32.69,-33.21,0,*63
1510621624.64,15236,7.19,72806.3,-11.79,-32.63,-33.21,0,*6A
1510621625.88,15237,7.19,72808.3,-11.79,-32.45,-33.03,0,*6F
1510621627.18,15238,7.19,72804.3,-11.81,-32.63,-33.09,0,*69
1510621628.42,15239,7.19,72808.8,-11.79,-32.63,-33.21,0,*65
1510621629.64,15240,7.19,72806.3,-11.79,-32.69,-33.21,0,*61
1510621630.91,15241,7.19,72808.5,-11.79,-32.63,-33.09,0,*60
1510621632.13,15242,7.19,72810.0,-11.75,-32.57,-33.21,0,*62
1510621633.34,15243,7.19,72808.5,-11.75,-32.57,-33.15,0,*64
1510621634.58,15244,7.19,72810.0,-11.75,-32.39,-32.97,0,*60
1510621635.84,15245,7.19,72810.8,-11.75,-32.29,-32.97,0,*60
1510621637.08,15246,7.19,72808.3,-11.79,-32.63,-33.21,0,*6D
1510621638.32,15247,7.19,72808.8,-11.79,-32.51,-33.09,0,*67
1510621639.57,15248,7.19,72808.0,-11.79,-32.51,-33.09,0,*68
1510621640.81,15249,7.19,72808.5,-11.79,-32.63,-33.21,0,*62
1510621642.05,15250,7.19,72806.5,-11.79,-32.63,-33.21,0,*6A
1510621643.3,15251,7.19,72804.8,-11.81,-32.51,-33.21,0,*6D
1510621644.54,15252,7.19,72810.0,-11.75,-32.63,-33.21,0,*64
1510621645.79,15253,7.19,72808.3,-11.79,-32.69,-33.27,0,*65
1510621647.04,15254,7.19,72806.5,-11.79,-32.79,-33.37,0,*62
1510621648.3,15255,7.19,72804.3,-11.79,-32.69,-33.27,0,*63
1510621649.58,15256,7.19,72808.3,-11.81,-32.69,-33.27,0,*67
1510621650.84,15257,7.19,72806.5,-11.81,-32.51,-33.09,0,*61
1510621652.06,15258,7.19,72804.3,-11.75,-32.39,-32.91,0,*6B
1510621653.31,15259,7.19,72800.5,-11.79,-32.63,-33.21,0,*63
1510621654.52,15260,7.19,72802.0,-11.75,-32.57,-33.15,0,*65
1510621655.82,15261,7.19,72804.0,-11.81,-32.63,-33.27,0,*69
1510621657.06,15262,7.19,72802.0,-11.81,-32.51,-33.21,0,*6D
1510621658.31,15263,7.19,72802.8,-11.79,-32.63,-33.21,0,*6A
1510621659.58,15264,7.19,72804.0,-11.81,-32.63,-33.21,0,*6A
1510621660.85,15265,7.19,72806.8,-11.81,-32.63,-33.37,0,*6C
1510621662.1,15266,7.19,72806.0,-11.79,-32.69,-33.27,0,*63
1510621663.37,15267,7.19,72806.3,-11.79,-32.63,-33.27,0,*68
1510621664.64,15268,7.19,72804.8,-11.81,-32.63,-33.21,0,*66
1510621665.94,15269,7.19,72804.0,-11.81,-32.63,-33.09,0,*6D
1510621667.18,15270,7.19,72804.3,-11.79,-32.45,-33.03,0,*6C
1510621668.47,15271,7.19,72806.5,-11.81,-32.29,-32.85,0,*6F
1510621669.68,15272,7.19,72804.0,-11.79,-32.35,-33.03,0,*69
1510621670.95,15273,7.19,72806.8,-11.81,-32.35,-32.97,0,*63
1510621672.16,15274,7.19,72802.3,-11.79,-32.35,-33.03,0,*6F
1510621673.4,15275,7.19,72804.5,-11.79,-32.51,-33.09,0,*66
1510621674.64,15276,7.19,72804.8,-11.79,-32.51,-33.09,0,*65
1510621675.9,15277,7.19,72806.5,-11.79,-32.69,-33.27,0,*63
1510621677.17,15278,7.19,72808.0,-11.79,-32.63,-33.27,0,*66
1510621678.41,15279,7.19,72804.8,-11.79,-32.63,-33.21,0,*61
1510621679.66,15280,7.19,72804.5,-11.79,-32.63,-33.21,0,*67
1510621680.91,15281,7.19,72806.0,-11.79,-32.69,-33.27,0,*6A
1510621682.13,15282,7.19,72806.8,-11.79,-32.69,-33.21,0,*6F
1510621683.38,15283,7.19,72804.0,-11.81,-32.51,-33.21,0,*62
1510621684.6,15284,7.19,72806.5,-11.79,-32.51,-33.21,0,*62
1510621685.81,15285,7.19,72804.0,-11.79,-32.35,-33.03,0,*61
1510621687.09,15286,7.19,72806.3,-11.81,-32.69,-33.27,0,*6A
1510621688.33,15287,7.19,72806.3,-11.79,-32.45,-33.03,0,*64
1510621689.54,15288,7.19,72804.0,-11.79,-32.35,-33.03,0,*6C
1510621690.75,15289,7.19,72804.3,-11.79,-32.35,-33.03,0,*6D
1510621691.98,15290,7.19,72804.5,-11.79,-32.69,-33.37,0,*6B
1510621693.2,15291,7.19,72802.8,-11.75,-32.57,-33.15,0,*6B
1510621694.42,15292,7.19,72802.3,-11.79,-32.69,-33.37,0,*69
1510621695.65,15293,7.19,72796.0,-11.79,-32.69,-33.37,0,*68
1510621696.9,15294,7.19,72800.0,-11.79,-32.69,-33.27,0,*6E
1510621698.16,15295,7.19,72800.8,-11.79,-32.69,-33.27,0,*6F
1510621699.41,15296,7.19,72800.0,-11.79,-32.69,-33.27,0,*6C
1510621700.66,15297,7.19,72800.0,-11.79,-32.63,-33.37,0,*66